Find Starlink 36273

NORAD ID: 68166 Int'l Des: 2026-049 Owner: SPXS Country: US Constellation: starlink operational
LEOCIRCULARRETROGRADE

Live Position

Loading 3D Globe...

About Starlink 36273

Description loading...

Upcoming Passes

Passes for default location (London). Set your location on the main map for personalized predictions.

Altitude History

Loading altitude history...

Two-Line Element Set

1 68166U 26049AA 26119.59924411 .00199641 00000-0 13078-2 0 9993
2 68166 97.2830 141.3776 0002190 80.2632 279.8881 15.75198103 7437
Epoch: Apr 29, 2026 • Age: 12 hours

Current Status

Altitude 373.3 km
Velocity 7.68 km/s
Sub-Earth Point -81.64°S, 11.26°E
Launch Date Mar 13, 2026
Age 0.1 years
Type internet

Technical Details

Classification Payload
Mass 575.00 kg
Dry Mass 530.00 kg
Total Mass 575.00 kg
Length 0.30 m
Diameter 4.10 m
Span 29.00 m
Shape Box + pan
Manufacturer SPXS
Bus Type Starlink V2MO
Phase Status In Orbit
Owner/State SPXS/US

Most Searched